Total_Precipitation_Accumulation
0.55 0.55 0.54 0.62 0.70 0.93 1.08 0.95 0.70 0.58 0.56 0.52 0.48 0.52 0.60 0.66 0.76 0.84 0.88 0.89 0.88 0.93 0.87 0.85 0.93 0.97 1.11 1.13 1.10 1.01 0.92 0.84 0.79 0.65 0.44 0.25 0.16 0.12 0.08 0.04 0.02 0.01 0.00
0.47 0.44 0.47 0.54 0.63 0.70 0.69 0.66 0.55 0.39 0.32 0.33 0.35 0.36 0.44 0.52 0.57 0.61 0.66 0.70 0.72 0.75 0.73 0.67 0.71 0.79 0.86 1.01 1.08 1.07 1.02 0.92 0.88 0.79 0.57 0.38 0.26 0.19 0.14 0.08 0.04 0.02 0.01
0.46 0.49 0.50 0.51 0.51 0.46 0.39 0.32 0.29 0.27 0.25 0.25 0.31 0.36 0.41 0.46 0.55 0.55 0.55 0.57 0.58 0.56 0.57 0.57 0.58 0.65 0.78 0.88 0.85 0.93 0.99 1.01 0.99 0.92 0.73 0.54 0.39 0.26 0.17 0.12 0.08 0.07 0.05
0.63 0.67 0.67 0.62 0.58 0.52 0.43 0.34 0.28 0.24 0.23 0.27 0.32 0.38 0.39 0.42 0.46 0.45 0.47 0.51 0.48 0.44 0.44 0.43 0.42 0.46 0.57 0.77 0.76 0.76 0.85 0.92 1.05 1.05 0.89 0.63 0.48 0.36 0.26 0.21 0.19 0.16 0.12
0.59 0.69 0.69 0.67 0.63 0.60 0.50 0.39 0.35 0.29 0.25 0.28 0.32 0.41 0.43 0.42 0.39 0.46 0.45 0.49 0.46 0.41 0.39 0.39 0.39 0.45 0.60 0.65 0.63 0.72 0.83 0.85 0.94 0.99 0.97 0.82 0.62 0.46 0.33 0.29 0.26 0.26 0.22
0.50 0.59 0.74 0.76 0.65 0.57 0.48 0.41 0.37 0.35 0.31 0.30 0.34 0.44 0.50 0.41 0.69 0.73 0.53 0.46 0.44 0.38 0.35 0.34 0.31 0.32 0.48 0.67 0.70 0.70 0.77 0.87 0.92 0.91 0.90 0.83 0.73 0.62 0.55 0.47 0.36 0.29 0.25
0.44 0.54 0.74 0.74 0.61 0.53 0.56 0.55 0.48 0.46 0.45 0.41 0.39 0.40 0.45 0.56 0.51 0.38 0.34 0.30 0.38 0.35 0.29 0.25 0.20 0.19 0.25 0.36 0.45 0.47 0.62 0.83 0.94 0.92 0.82 0.80 0.84 0.76 0.63 0.51 0.43 0.37 0.35
0.37 0.44 0.57 0.58 0.55 0.57 0.57 0.54 0.48 0.44 0.45 0.44 0.43 0.43 0.47 0.49 0.37 0.26 0.25 0.22 0.31 0.30 0.24 0.21 0.21 0.21 0.24 0.33 0.43 0.48 0.53 0.64 0.80 0.77 0.69 0.72 0.75 0.71 0.64 0.59 0.57 0.51 0.41
0.25 0.32 0.40 0.42 0.45 0.47 0.47 0.48 0.45 0.41 0.41 0.41 0.42 0.48 0.52 0.47 0.37 0.26 0.22 0.29 0.36 0.29 0.22 0.23 0.24 0.26 0.36 0.41 0.38 0.42 0.53 0.56 0.70 0.74 0.80 0.79 0.64 0.52 0.51 0.54 0.57 0.55 0.49
0.18 0.23 0.30 0.33 0.36 0.39 0.44 0.47 0.47 0.44 0.40 0.38 0.37 0.38 0.43 0.42 0.44 0.24 0.25 0.39 0.42 0.40 0.38 0.33 0.37 0.37 0.45 0.44 0.36 0.45 0.59 0.50 0.46 0.52 0.52 0.51 0.43 0.37 0.40 0.40 0.50 0.55 0.51
0.09 0.14 0.20 0.28 0.35 0.43 0.48 0.49 0.50 0.48 0.43 0.40 0.44 0.42 0.39 0.45 0.50 0.37 0.33 0.37 0.48 0.49 0.48 0.47 0.40 0.42 0.42 0.45 0.45 0.54 0.72 0.61 0.45 0.46 0.51 0.48 0.37 0.32 0.34 0.37 0.42 0.48 0.49
0.06 0.10 0.17 0.25 0.32 0.40 0.48 0.50 0.50 0.50 0.49 0.50 0.50 0.51 0.49 0.46 0.48 0.46 0.39 0.38 0.41 0.46 0.53 0.50 0.46 0.43 0.33 0.34 0.35 0.45 0.69 0.64 0.46 0.47 0.52 0.52 0.46 0.39 0.37 0.35 0.36 0.38 0.39
0.02 0.06 0.10 0.15 0.19 0.23 0.29 0.37 0.44 0.48 0.49 0.49 0.53 0.60 0.61 0.55 0.55 0.60 0.41 0.30 0.30 0.34 0.38 0.45 0.43 0.37 0.29 0.24 0.26 0.33 0.48 0.65 0.61 0.52 0.47 0.45 0.46 0.44 0.42 0.36 0.30 0.29 0.28
0.01 0.03 0.04 0.06 0.06 0.09 0.18 0.27 0.33 0.40 0.45 0.51 0.57 0.65 0.73 0.67 0.59 0.51 0.40 0.32 0.29 0.25 0.22 0.22 0.24 0.26 0.26 0.25 0.23 0.26 0.40 0.58 0.63 0.55 0.47 0.46 0.47 0.44 0.38 0.34 0.32 0.30 0.28
0.01 0.01 0.02 0.03 0.05 0.07 0.14 0.22 0.26 0.34 0.36 0.39 0.49 0.61 0.64 0.64 0.62 0.65 0.60 0.53 0.46 0.42 0.35 0.27 0.24 0.27 0.30 0.32 0.31 0.30 0.36 0.47 0.51 0.48 0.43 0.40 0.41 0.44 0.40 0.33 0.29 0.26 0.25
0.06 0.03 0.02 0.03 0.05 0.08 0.11 0.12 0.12 0.15 0.16 0.19 0.24 0.29 0.33 0.36 0.37 0.34 0.38 0.43 0.40 0.34 0.41 0.47 0.47 0.47 0.45 0.41 0.38 0.31 0.27 0.32 0.40 0.42 0.40 0.37 0.35 0.39 0.41 0.36 0.32 0.29 0.26
0.14 0.11 0.07 0.05 0.05 0.06 0.07 0.09 0.09 0.06 0.05 0.06 0.08 0.13 0.19 0.21 0.20 0.19 0.21 0.28 0.34 0.35 0.45 0.50 0.47 0.42 0.38 0.34 0.32 0.28 0.25 0.25 0.29 0.33 0.34 0.35 0.35 0.38 0.43 0.44 0.40 0.37 0.33
0.03 0.03 0.05 0.08 0.05 0.04 0.07 0.13 0.18 0.20 0.14 0.07 0.03 0.05 0.10 0.14 0.15 0.16 0.18 0.21 0.21 0.25 0.33 0.41 0.37 0.34 0.28 0.25 0.22 0.20 0.19 0.20 0.22 0.25 0.28 0.31 0.36 0.39 0.42 0.46 0.50 0.47 0.44
0.01 0.03 0.09 0.10 0.06 0.05 0.10 0.18 0.20 0.19 0.18 0.11 0.05 0.03 0.03 0.05 0.07 0.09 0.11 0.15 0.14 0.13 0.16 0.23 0.26 0.25 0.21 0.16 0.12 0.10 0.09 0.08 0.10 0.14 0.19 0.24 0.29 0.35 0.40 0.42 0.45 0.49 0.49
0.02 0.02 0.09 0.14 0.08 0.08 0.10 0.10 0.10 0.12 0.10 0.06 0.05 0.05 0.04 0.05 0.06 0.04 0.05 0.06 0.07 0.07 0.08 0.12 0.15 0.17 0.15 0.13 0.10 0.08 0.06 0.07 0.06 0.07 0.11 0.16 0.20 0.24 0.29 0.35 0.41 0.43 0.42
0.06 0.03 0.03 0.14 0.17 0.14 0.12 0.10 0.11 0.13 0.09 0.05 0.03 0.01 0.02 0.05 0.07 0.06 0.04 0.05 0.06 0.08 0.08 0.08 0.09 0.14 0.12 0.11 0.10 0.09 0.07 0.07 0.07 0.07 0.08 0.09 0.12 0.16 0.19 0.21 0.24 0.29 0.34
0.02 0.03 0.04 0.13 0.18 0.14 0.11 0.11 0.12 0.10 0.08 0.05 0.03 0.01 0.02 0.04 0.05 0.06 0.05 0.06 0.07 0.08 0.07 0.06 0.08 0.11 0.12 0.10 0.09 0.10 0.09 0.08 0.07 0.08 0.09 0.10 0.10 0.09 0.10 0.12 0.13 0.15 0.18
0.01 0.02 0.03 0.07 0.08 0.04 0.05 0.08 0.09 0.09 0.06 0.04 0.03 0.02 0.02 0.03 0.04 0.04 0.04 0.07 0.10 0.11 0.08 0.06 0.08 0.12 0.14 0.14 0.12 0.12 0.12 0.12 0.10 0.08 0.08 0.10 0.12 0.12 0.11 0.11 0.11 0.13 0.15
0.01 0.01 0.02 0.04 0.04 0.05 0.07 0.08 0.07 0.06 0.06 0.04 0.03 0.03 0.04 0.05 0.04 0.04 0.05 0.07 0.10 0.11 0.08 0.07 0.07 0.09 0.12 0.15 0.16 0.16 0.15 0.14 0.11 0.08 0.08 0.09 0.10 0.10 0.11 0.11 0.13 0.15 0.17
0.02 0.01 0.02 0.03 0.04 0.05 0.05 0.07 0.07 0.06 0.07 0.06 0.05 0.04 0.04 0.05 0.06 0.04 0.03 0.04 0.06 0.06 0.05 0.05 0.07 0.11 0.13 0.14 0.16 0.18 0.23 0.22 0.16 0.11 0.09 0.09 0.10 0.11 0.13 0.15 0.18 0.20 0.24
0.02 0.01 0.02 0.04 0.05 0.05 0.06 0.07 0.06 0.06 0.07 0.06 0.06 0.06 0.06 0.06 0.05 0.04 0.04 0.04 0.04 0.04 0.07 0.07 0.08 0.11 0.13 0.14 0.12 0.12 0.14 0.14 0.13 0.13 0.10 0.09 0.09 0.11 0.14 0.17 0.21 0.26 0.30